FW3655 Weather Reports


Display with metric or nautical units.
time (UTC)temp
F
wind
direction
speed
MPH
gust
MPH
rain 1hr
in
rain 24hr
in
rain mn
in
humidity
%
barometer
mb
20240525223608 51 356 1.0 2.0 0.00 0.01 0.00 100 1026.5
20240525223043 51 341 1.0 2.0 0.00 0.01 0.00 100 1026.4
20240525222543 51 341 1.0 2.0 0.00 0.01 0.00 100 1026.3
20240525222045 51 341 0.0 1.0 0.00 0.01 0.00 100 1026.5
20240525221543 50 341 0.0 1.0 0.00 0.01 0.00 100 1026.4
20240525221055 50 341 0.0 1.0 0.00 0.01 0.00 100 1026.4
20240525220947 50 341 0.0 1.0 0.00 0.01 0.00 100 1026.5
20240525220051 50 341 0.0 1.0 0.00 0.01 0.00 100 1026.4
20240525215539 50 341 0.0 0.0 0.00 0.01 0.00 100 1026.4
20240525215428 50 341 0.0 2.0 0.00 0.02 0.00 100 1026.3
20240525214541 49 341 0.0 2.0 0.00 0.02 0.00 100 1026.2
20240525214035 49 238 0.0 1.0 0.00 0.02 0.00 100 1026.3
20240525213537 49 238 0.0 1.0 0.00 0.02 0.00 100 1026.3
20240525213049 49 238 0.0 1.0 0.00 0.02 0.00 100 1026.2
20240525212540 49 238 0.0 1.0 0.00 0.02 0.00 100 1026.2
20240525212039 49 238 0.0 1.0 0.00 0.02 0.00 100 1026.2
20240525211533 49 238 0.0 1.0 0.00 0.02 0.00 100 1026.2
20240525211035 49 238 0.0 1.0 0.00 0.02 0.00 100 1026.1
20240525210514 49 238 0.0 1.0 0.00 0.02 0.00 100 1026.1
20240525210012 49 238 0.0 1.0 0.00 0.02 0.00 100 1026.1
20240525205510 49 238 0.0 1.0 0.00 0.02 0.00 100 1026.0
20240525205013 49 238 0.0 1.0 0.00 0.02 0.00 100 1026.0
20240525204506 49 238 0.0 2.0 0.00 0.02 0.00 100 1025.8
20240525204007 49 238 0.0 2.0 0.00 0.02 0.00 100 1025.9
20240525203504 49 232 1.0 2.0 0.00 0.02 0.00 100 1025.8
20240525203005 50 214 0.0 2.0 0.00 0.02 0.00 100 1025.7
20240525202507 50 133 0.0 1.0 0.00 0.02 0.00 100 1025.8
20240525202001 50 133 0.0 1.0 0.00 0.02 0.00 100 1025.7
20240525201503 50 133 0.0 2.0 0.00 0.02 0.00 100 1025.7
20240525201000 50 133 0.0 3.0 0.00 0.02 0.00 100 1025.7
20240525200502 50 133 1.0 3.0 0.00 0.02 0.00 100 1025.6
20240525200005 50 133 2.0 2.0 0.00 0.02 0.00 100 1025.5
20240525195512 50 133 0.0 1.0 0.00 0.02 0.00 100 1025.4
20240525195006 50 133 0.0 1.0 0.00 0.02 0.00 100 1025.5
20240525194506 50 133 0.0 1.0 0.00 0.02 0.00 100 1025.4
20240525194004 50 133 0.0 1.0 0.00 0.02 0.00 100 1025.3
20240525193503 50 133 0.0 1.0 0.00 0.02 0.00 100 1025.3
20240525193007 50 133 0.0 1.0 0.00 0.02 0.00 100 1025.3
20240525192847 50 133 0.0 1.0 0.00 0.02 0.00 100 1025.3
20240525192344 50 133 0.0 0.0 0.00 0.02 0.00 100 1025.2
20240525191501 49 133 0.0 0.0 0.00 0.02 0.00 100 1025.2
20240525191343 49 133 0.0 0.0 0.00 0.02 0.00 100 1025.2
20240525190459 49 133 0.0 0.0 0.00 0.02 0.00 100 1025.1
20240525190004 49 133 0.0 0.0 0.00 0.02 0.00 100 1025.1
20240525185442 49 133 0.0 0.0 0.00 0.02 0.00 100 1025.1
20240525184938 49 133 0.0 0.0 0.00 0.02 0.00 100 1025.1
20240525184438 49 133 0.0 0.0 0.00 0.02 0.00 100 1025.0
20240525184235 49 133 0.0 0.0 0.00 0.02 0.00 100 1025.0
20240525183438 49 133 0.0 0.0 0.00 0.02 0.00 100 1025.1
20240525182938 49 133 0.0 0.0 0.00 0.02 0.00 100 1025.1
20240525182433 49 133 0.0 0.0 0.00 0.02 0.00 100 1025.1
20240525182121 49 133 0.0 0.0 0.00 0.02 0.00 100 1025.1
20240525182031 49 133 0.0 0.0 0.00 0.02 0.00 100 1025.2
20240525181320 49 133 0.0 1.0 0.00 0.02 0.00 100 1025.1
20240525180440 49 133 0.0 1.0 0.00 0.02 0.00 100 1025.1
20240525175939 49 133 0.0 0.0 0.00 0.02 0.00 100 1025.1
20240525175438 49 133 0.0 0.0 0.00 0.02 0.00 100 1025.2
20240525175114 49 133 0.0 2.0 0.00 0.02 0.00 100 1025.1
20240525175033 49 133 0.0 1.0 0.00 0.02 0.00 100 1025.0
20240525173934 49 133 0.0 2.0 0.00 0.02 0.00 100 1025.2
20240525173812 49 133 1.0 1.0 0.00 0.02 0.00 100 1025.2
20240525172941 49 133 1.0 1.0 0.00 0.02 0.00 100 1025.2
20240525172746 49 133 0.0 1.0 0.00 0.02 0.00 100 1025.3
20240525171932 49 133 0.0 1.0 0.00 0.02 0.00 100 1025.2
20240525171432 49 133 0.0 0.0 0.00 0.02 0.00 100 1025.3
20240525170936 48 133 0.0 1.0 0.00 0.02 0.00 100 1025.4
20240525170849 48 133 0.0 1.0 0.00 0.02 0.00 100 1025.4
20240525165932 48 133 0.0 0.0 0.00 0.02 0.00 100 1025.4
20240525165433 48 133 0.0 1.0 0.00 0.02 0.00 100 1025.5
20240525164934 48 133 0.0 1.0 0.00 0.02 0.00 100 1025.5
20240525164407 48 133 0.0 1.0 0.00 0.02 0.00 100 1025.4
20240525164227 48 133 0.0 0.0 0.00 0.02 0.00 100 1025.5
20240525163809 48 133 0.0 0.0 0.00 0.02 0.00 100 1025.5
20240525162907 48 133 0.0 0.0 0.00 0.02 0.00 100 1025.5
20240525162739 48 133 0.0 0.0 0.00 0.02 0.00 100 1025.4
20240525161909 48 133 0.0 0.0 0.00 0.02 0.00 100 1025.5
20240525161407 48 133 0.0 0.0 0.00 0.02 0.00 100 1025.5
20240525160907 48 133 0.0 0.0 0.00 0.02 0.00 100 1025.5
20240525160406 48 133 0.0 0.0 0.00 0.02 0.00 100 1025.6
20240525160231 48 133 0.0 0.0 0.00 0.02 0.00 100 1025.6
20240525155410 48 133 0.0 0.0 0.00 0.02 0.00 100 1025.6
20240525155246 48 133 0.0 0.0 0.00 0.02 0.00 100 1025.7
20240525154818 48 133 0.0 0.0 0.00 0.02 0.00 100 1025.7
20240525154158 48 133 0.0 0.0 0.00 0.02 0.00 100 1025.8
20240525153357 48 133 0.0 0.0 0.00 0.02 0.00 100 1025.8
20240525152901 48 133 0.0 0.0 0.00 0.02 0.00 100 1025.9
20240525152741 48 133 0.0 0.0 0.00 0.02 0.00 100 1025.8
20240525152252 48 133 0.0 0.0 0.00 0.02 0.00 100 1025.8
20240525151357 48 133 0.0 0.0 0.00 0.02 0.00 100 1025.9
20240525150854 48 133 0.0 0.0 0.00 0.02 0.00 100 1025.9
20240525150352 48 133 0.0 0.0 0.00 0.02 0.00 100 1025.8
20240525145852 48 133 0.0 1.0 0.00 0.02 0.00 100 1025.9
20240525145401 48 133 0.0 1.0 0.00 0.02 0.00 100 1025.9
20240525144848 48 133 0.0 2.0 0.00 0.02 0.00 100 1025.8
20240525144345 48 133 1.0 2.0 0.00 0.02 0.00 100 1025.8
20240525143847 48 133 1.0 1.0 0.00 0.02 0.00 100 1025.9
20240525143345 48 133 0.0 1.0 0.00 0.02 0.00 100 1025.9
20240525142847 48 133 0.0 1.0 0.00 0.02 0.00 100 1026.0
20240525142339 48 133 0.0 1.0 0.00 0.02 0.00 100 1026.0
20240525141839 48 133 1.0 1.0 0.00 0.02 0.00 100 1026.1
20240525141340 48 133 0.0 1.0 0.00 0.02 0.00 100 1026.1
20240525141239 48 133 0.0 1.0 0.00 0.02 0.00 100 1026.1
20240525140338 48 133 0.0 1.0 0.00 0.02 0.00 100 1026.1
20240525135834 48 133 0.0 0.0 0.00 0.02 0.02 100 1026.2
20240525135337 48 133 0.0 0.0 0.00 0.02 0.02 100 1026.1
20240525134833 48 133 0.0 0.0 0.00 0.02 0.02 100 1026.1
20240525134334 48 133 0.0 0.0 0.00 0.02 0.02 100 1026.2
20240525133836 49 133 0.0 0.0 0.00 0.02 0.02 100 1026.2
20240525133315 49 133 0.0 0.0 0.00 0.02 0.02 100 1026.2
20240525132812 49 133 0.0 0.0 0.00 0.02 0.02 100 1026.2
20240525132311 49 133 0.0 0.0 0.00 0.02 0.02 100 1026.3
20240525131751 49 133 0.0 1.0 0.00 0.02 0.02 100 1026.3
20240525131312 49 133 0.0 2.0 0.00 0.02 0.02 100 1026.3
20240525131259 49 133 0.0 2.0 0.00 0.02 0.02 100 1026.3
20240525130253 49 133 1.0 2.0 0.00 0.02 0.02 100 1026.3
20240525125749 49 133 1.0 2.0 0.00 0.02 0.02 100 1026.3
20240525125249 49 133 0.0 2.0 0.00 0.02 0.02 100 1026.4
20240525124748 49 133 1.0 2.0 0.00 0.02 0.02 100 1026.4
20240525124248 49 133 0.0 1.0 0.00 0.02 0.02 100 1026.4
20240525124230 49 133 0.0 2.0 0.00 0.02 0.02 100 1026.4
20240525123253 49 133 0.0 2.0 0.00 0.02 0.02 100 1026.5
20240525122751 50 133 1.0 1.0 0.00 0.02 0.02 100 1026.5
20240525122252 50 133 0.0 2.0 0.00 0.02 0.02 100 1026.5
20240525121754 50 133 1.0 2.0 0.00 0.02 0.02 100 1026.5
20240525121252 50 133 0.0 2.0 0.00 0.02 0.02 100 1026.5
20240525120748 50 133 0.0 2.0 0.00 0.02 0.02 100 1026.5
20240525120248 50 133 0.0 2.0 0.00 0.02 0.02 100 1026.5
20240525115755 50 133 0.0 2.0 0.00 0.02 0.02 100 1026.6
20240525115249 51 133 0.0 2.0 0.00 0.02 0.02 100 1026.5
20240525114752 51 133 1.0 1.0 0.00 0.02 0.02 100 1026.5
20240525114558 51 133 0.0 1.0 0.00 0.02 0.02 100 1026.6
20240525113749 51 133 0.0 0.0 0.00 0.02 0.02 100 1026.6
20240525113529 51 133 0.0 0.0 0.00 0.02 0.02 100 1026.5
20240525112740 52 133 0.0 1.0 0.00 0.02 0.02 100 1026.6
20240525112243 52 133 0.0 1.0 0.00 0.02 0.02 100 1026.6
20240525111737 52 133 0.0 1.0 0.00 0.02 0.02 100 1026.5
20240525111237 52 133 1.0 1.0 0.00 0.02 0.02 100 1026.6
20240525110733 52 133 0.0 1.0 0.00 0.02 0.02 100 1026.5
20240525110516 0 0.0 0.0 0.00 0.02 0.02 1026.4
20240525105737 53 133 0.0 0.0 0.00 0.02 0.02 100 1026.4
20240525105235 53 133 0.0 0.0 0.00 0.02 0.02 100 1026.4
20240525104737 53 133 0.0 0.0 0.00 0.02 0.02 100 1026.4
20240525104452 53 133 0.0 1.0 0.00 0.02 0.02 100 1026.3
20240525104357 53 133 0.0 1.0 0.00 0.02 0.02 100 1026.4
20240525103240 53 133 0.0 2.0 0.00 0.02 0.02 100 1026.3
20240525102737 53 133 1.0 2.0 0.00 0.02 0.02 100 1026.3
20240525102233 54 133 0.0 1.0 0.00 0.02 0.02 100 1026.3
20240525101737 54 133 0.0 0.0 0.00 0.02 0.02 100 1026.3
20240525101209 0 0.0 0.0 0.00 0.02 0.02 1026.3
20240525100715 55 133 0.0 1.0 0.00 0.02 0.02 100 1026.2
20240525100452 55 133 0.0 1.0 0.00 0.02 0.02 100 1026.2
20240525095710 55 133 0.0 1.0 0.00 0.02 0.02 100 1026.3
20240525095209 55 133 0.0 0.0 0.00 0.02 0.02 100 1026.3
20240525094709 55 133 0.0 0.0 0.00 0.02 0.02 100 1026.3
20240525094209 55 133 0.0 0.0 0.00 0.02 0.02 100 1026.2
20240525093713 56 133 0.0 0.0 0.00 0.02 0.02 100 1026.2
20240525093250 56 133 0.0 0.0 0.00 0.02 0.02 100 1026.2
20240525093213 56 133 0.0 0.0 0.00 0.02 0.02 100 1026.2
20240525092142 56 133 0.0 1.0 0.00 0.02 0.02 100 1026.1
20240525091640 56 133 0.0 1.0 0.00 0.02 0.02 100 1026.1
20240525091140 56 133 0.0 1.0 0.00 0.02 0.02 100 1026.0
20240525090634 56 133 0.0 0.0 0.00 0.02 0.02 100 1026.0
20240525090135 57 133 0.0 1.0 0.00 0.02 0.02 100 1026.0
20240525090048 57 133 0.0 1.0 0.00 0.02 0.02 100 1026.0
20240525085135 57 133 0.0 1.0 0.00 0.02 0.02 100 1026.0
20240525085014 57 133 0.0 0.0 0.00 0.02 0.02 100 1025.9
20240525084135 57 133 0.0 0.0 0.00 0.02 0.02 100 1026.0
20240525083635 57 133 0.0 0.0 0.00 0.02 0.02 100 1026.0
20240525083214 58 133 0.0 2.0 0.00 0.02 0.02 100 1025.8
20240525083202 58 133 0.0 1.0 0.00 0.02 0.02 100 1025.8
20240525082134 58 133 1.0 2.0 0.00 0.02 0.02 100 1025.7
20240525081632 58 133 0.0 2.0 0.00 0.02 0.02 100 1025.7
20240525081415 59 133 1.0 2.0 0.00 0.02 0.02 100 1025.7
20240525081336 58 133 1.0 2.0 0.00 0.02 0.02 100 1025.7
20240525080134 59 86 1.0 2.0 0.00 0.02 0.02 100 1025.7
20240525075623 59 86 0.0 1.0 0.00 0.02 0.02 100 1025.6
20240525075125 59 86 1.0 1.0 0.00 0.02 0.02 100 1025.5
20240525074623 60 86 0.0 0.0 0.00 0.02 0.02 100 1025.5
20240525074124 60 86 0.0 2.0 0.00 0.02 0.02 100 1025.4
20240525073620 61 86 0.0 2.0 0.00 0.02 0.02 100 1025.4
20240525073121 61 86 1.0 2.0 0.00 0.02 0.02 100 1025.4
20240525072609 62 86 0.0 0.0 0.00 0.02 0.02 100 1025.4
20240525072108 62 86 0.0 1.0 0.00 0.02 0.02 100 1025.4
20240525071609 63 86 0.0 1.0 0.00 0.02 0.02 100 1025.3
20240525071108 63 86 0.0 0.0 0.00 0.02 0.02 100 1025.3
20240525070538 64 86 0.0 0.0 0.00 0.02 0.02 100 1025.3
20240525070107 64 86 0.0 0.0 0.00 0.02 0.02 100 1025.3
20240525065540 64 86 0.0 0.0 0.00 0.02 0.02 100 1025.2
20240525065038 65 86 0.0 2.0 0.00 0.02 0.02 100 1025.1
20240525064537 65 86 0.0 2.0 0.00 0.02 0.02 100 1025.1
20240525064449 65 86 1.0 2.0 0.00 0.02 0.02 100 1025.0
20240525063536 65 86 1.0 2.0 0.00 0.02 0.02 100 1024.9
20240525063039 65 86 1.0 2.0 0.00 0.02 0.02 100 1025.0
20240525062537 66 86 0.0 1.0 0.01 0.02 0.02 100 1025.1
20240525062038 66 86 0.0 2.0 0.01 0.02 0.02 100 1025.0
20240525061537 66 86 0.0 2.0 0.01 0.02 0.02 100 1025.1
20240525061038 66 86 1.0 2.0 0.01 0.02 0.02 100 1025.1
20240525060958 66 86 1.0 1.0 0.01 0.02 0.02 100 1025.1
20240525060037 67 106 2.0 3.0 0.01 0.02 0.02 100 1025.1
20240525055538 67 106 2.0 3.0 0.01 0.02 0.02 100 1025.0
20240525055036 67 103 2.0 4.0 0.01 0.02 0.02 100 1024.9
20240525054537 67 110 2.0 5.0 0.01 0.02 0.02 100 1024.9
20240525054451 67 123 4.0 5.0 0.01 0.02 0.02 100 1025.0
20240525053536 67 119 4.0 5.0 0.01 0.02 0.02 100 1024.9
20240525053036 67 133 4.0 5.0 0.01 0.01 0.02 100 1024.9
20240525052536 67 129 2.0 4.0 0.00 0.01 0.01 100 1025.0
20240525052051 67 150 2.0 4.0 0.00 0.01 0.01 100 1024.9
20240525051538 67 108 3.0 7.0 0.00 0.01 0.01 100 1024.9
20240525051042 67 156 2.0 7.0 0.00 0.01 0.01 100 1024.9
20240525050542 68 119 3.0 7.0 0.00 0.01 0.01 100 1024.9
20240525050445 71 105 2.0 4.0 0.00 0.01 0.01 100 1024.8
20240525050237 69 197 0.0 5.0 0.00 0.01 0.01 100 1024.8
20240525045710 71 118 0.0 4.0 0.00 0.01 0.01 100 1024.7
20240525045641 69 118 2.0 5.0 0.00 0.01 0.01 100 1024.8
20240525044026 71 82 1.0 2.0 0.00 0.01 0.01 100 1024.9
20240525044017 69 311 0.0 1.0 0.00 0.01 0.01 100 1024.9
20240525043026 69 310 0.0 1.0 0.00 0.01 0.01 100 1025.0
20240525042522 69 310 0.0 4.0 0.00 0.01 0.01 100 1025.1
20240525042026 70 248 1.0 4.0 0.00 0.01 0.01 100 1025.1
20240525041531 72 180 2.0 3.0 0.00 0.01 0.01 100 1025.1
20240525041021 72 133 1.0 3.0 0.00 0.01 0.01 100 1025.1
20240525040522 71 123 0.0 3.0 0.00 0.01 0.01 100 1025.1
20240525040024 69 175 0.0 1.0 0.00 0.01 0.01 100 1025.2
20240525035522 69 153 0.0 1.0 0.00 0.01 0.01 100 1025.2
20240525035020 69 153 0.0 1.0 0.00 0.01 0.01 100 1025.3
20240525034523 70 67 1.0 3.0 0.00 0.01 0.01 100 1025.2
20240525034008 70 67 0.0 3.0 0.00 0.01 0.01 100 1025.3
20240525033508 71 110 0.0 2.0 0.00 0.01 0.01 100 1025.3
20240525033017 70 122 1.0 4.0 0.00 0.01 0.01 100 1025.4
20240525032508 69 122 3.0 4.0 0.00 0.01 0.01 100 1025.5
20240525032004 68 27 0.0 1.0 0.00 0.01 0.01 100 1025.6
20240525031509 67 22 0.0 2.0 0.00 0.01 0.01 100 1025.6
20240525030942 67 22 1.0 2.0 0.00 0.01 0.01 100 1025.6
20240525030435 66 22 1.0 2.0 0.00 0.01 0.01 100 1025.7
20240525025940 65 2 0.0 2.0 0.00 0.01 0.01 100 1025.8
20240525025441 65 335 0.0 2.0 0.00 0.01 0.01 100 1025.9
20240525024939 66 335 0.0 2.0 0.00 0.01 0.01 100 1026.0
20240525024442 67 359 1.0 2.0 0.00 0.01 0.01 100 1026.0
20240525023939 67 359 1.0 2.0 0.00 0.01 0.01 100 1026.1
20240525023433 70 180 0.0 3.0 0.00 0.01 0.01 100 1026.2
20240525022935 70 228 0.0 3.0 0.00 0.01 0.01 100 1026.2
20240525022435 71 270 1.0 2.0 0.00 0.01 0.01 100 1026.3
20240525022351 71 303 0.0 2.0 0.00 0.01 0.01 100 1026.5
20240525021437 69 3 1.0 2.0 0.00 0.01 0.01 100 1026.6
20240525021400 68 34 0.0 3.0 0.00 0.01 0.01 100 1026.7
20240525020439 65 298 1.0 3.0 0.00 0.01 0.01 100 1026.9
20240525015919 66 352 1.0 2.0 0.00 0.01 0.01 100 1026.9
20240525015417 66 276 0.0 3.0 0.00 0.01 0.01 100 1026.9
20240525014917 65 239 1.0 3.0 0.00 0.01 0.01 100 1027.0
20240525014419 65 284 0.0 2.0 0.00 0.01 0.01 100 1027.1
20240525013920 65 201 0.0 2.0 0.00 0.01 0.01 100 1027.2
20240525013416 62 253 0.0 2.0 0.00 0.01 0.01 100 1027.3
20240525012915 62 253 0.0 3.0 0.00 0.01 0.01 100 1027.4
20240525012414 62 317 1.0 3.0 0.00 0.01 0.01 100 1027.5
20240525011916 61 321 1.0 3.0 0.00 0.01 0.01 100 1027.6
20240525011728 61 324 1.0 3.0 0.00 0.01 0.01 100 1027.8
20240525010914 62 321 1.0 2.0 0.00 0.01 0.01 100 1027.8
20240525010808 59 303 0.0 3.0 0.00 0.01 0.01 100 1028.2
20240525010600 61 321 0.0 2.0 0.00 0.01 0.01 100 1027.9
20240525010121 60 314 1.0 3.0 0.00 0.01 0.01 100 1028.1
20240525004914 58 315 1.0 3.0 0.00 0.01 0.01 100 1028.2
20240525004415 58 329 1.0 3.0 0.00 0.01 0.01 100 1028.3
20240525003913 58 335 1.0 3.0 0.00 0.01 0.01 100 1028.5
20240525003413 58 320 0.0 2.0 0.00 0.01 0.01 100 1028.6
20240525002912 58 329 0.0 2.0 0.00 0.01 0.01 100 1028.6
20240525002416 59 84 1.0 2.0 0.00 0.01 0.01 100 1028.6
20240525001916 58 84 1.0 1.0 0.00 0.01 0.01 100 1028.6
20240525001837 59 180 1.0 2.0 0.00 0.01 0.01 100 1028.6
20240525001301 59 236 0.0 2.0 0.00 0.01 0.01 100 1028.7
20240525000415 59 146 1.0 3.0 0.00 0.01 0.01 100 1028.7
20240524235913 59 118 0.0 3.0 0.00 0.01 0.01 100 1028.7
20240524235414 56 118 1.0 3.0 0.00 0.01 0.01 100 1028.7
20240524234914 54 118 1.0 3.0 0.00 0.01 0.01 100 1028.7
20240524234412 54 118 1.0 3.0 0.00 0.01 0.01 100 1028.7
20240524234240 54 118 1.0 2.0 0.00 0.01 0.01 100 1028.8
20240524234056 54 118 0.0 2.0 0.00 0.01 0.01 100 1028.8
20240524232913 53 118 0.0 2.0 0.00 0.01 0.01 100 1028.8
20240524232415 53 118 1.0 2.0 0.00 0.01 0.01 100 1028.8
20240524231914 53 180 1.0 2.0 0.00 0.01 0.01 100 1028.8
20240524231411 52 304 0.0 1.0 0.00 0.01 0.01 100 1028.8
20240524230908 52 293 0.0 1.0 0.00 0.01 0.01 100 1028.8
20240524230405 52 287 0.0 1.0 0.00 0.01 0.01 100 1028.8
20240524225915 52 287 0.0 1.0 0.00 0.01 0.01 100 1028.8
20240524225405 52 277 0.0 1.0 0.01 0.01 0.01 100 1028.9
20240524224910 52 277 0.0 1.0 0.01 0.01 0.01 100 1028.8
20240524224408 52 289 0.0 1.0 0.01 0.01 0.01 100 1028.8
20240524223912 51 286 0.0 2.0 0.01 0.01 0.01 100 1028.8